Starlink 32124

operational
NORAD ID: 60298 Int'l Des: 2024-132 Owner: SPXS Country: US Constellation: starlink
LEOCIRCULAR

About Starlink 32124

Description loading...

Live Position

Loading 3D Globe...

Upcoming Passes

Altitude History

Altitude vs Time

uPlot chart will show altitude changes over time

Two-Line Element Set

1 60298U 24132W 25308.19629767 .00001000 00000-0 45893-4 0 9996
2 60298 53.1610 275.5590 0001311 78.5839 281.5309 15.30194168 72344
Epoch: Nov 4, 2025 • Age: 11 hours

Current Status

Altitude 475.9 km
Velocity 7.63 km/s
Sub-Earth Point 27.35°N, 14.4°E
Launch Date Jul 28, 2024
Age 1.2 years
Type internet

Technical Details

Classification Payload
Mass 730.00 kg
Dry Mass 700.00 kg
Total Mass 730.00 kg
Length 0.30 m
Diameter 4.10 m
Span 29.00 m
Shape Box + pan
Manufacturer SPXS
Bus Type Starlink V2M
Phase Status In Orbit
Owner/State SPXS/US

Large Constellations

Loading constellations...